| time (UTC) | temp F | wind direction | speed knots | gust knots | rain 1hr in | rain 24hr in | rain mn in | humidity % | barometer mb |
| 20260508141738 | 49 | 44 | 2.6 | 10.4 | 0.00 | 0.00 | 0.00 | 49 | 1008.1 |
| 20260508140236 | 50 | 355 | 2.6 | 8.7 | 0.00 | 0.00 | 0.00 | 45 | 1008.2 |
| 20260508135502 | 50 | 302 | 2.6 | 9.6 | 0.00 | 0.00 | 0.00 | 46 | 1008.0 |
| 20260508133229 | 51 | 346 | 1.7 | 10.4 | 0.00 | 0.00 | 0.00 | 47 | 1008.0 |
| 20260508131729 | 50 | 22 | 4.3 | 12.2 | 0.00 | 0.00 | 0.00 | 45 | 1008.2 |
| 20260508130230 | 49 | 320 | 0.9 | 11.3 | 0.00 | 0.00 | 0.00 | 47 | 1008.1 |
| 20260508124730 | 47 | 142 | 3.5 | 11.3 | 0.00 | 0.00 | 0.00 | 48 | 1008.3 |
| 20260508124000 | 45 | 150 | 1.7 | 9.6 | 0.00 | 0.00 | 0.00 | 53 | 1008.3 |
| 20260508121727 | 42 | 12 | 2.6 | 9.6 | 0.00 | 0.00 | 0.00 | 60 | 1008.2 |
| 20260508120224 | 39 | 73 | 2.6 | 7.8 | 0.00 | 0.00 | 0.00 | 73 | 1008.1 |
| 20260508114726 | 34 | 329 | 0.0 | 0.0 | 0.00 | 0.00 | 0.00 | 94 | 1008.3 |
| 20260508113219 | 33 | 328 | 0.0 | 0.0 | 0.00 | 0.00 | 0.00 | 97 | 1008.0 |
| 20260508111717 | 31 | 9 | 0.0 | 0.0 | 0.00 | 0.00 | 0.00 | 97 | 1007.9 |
| 20260508110216 | 29 | 9 | 0.0 | 0.0 | 0.00 | 0.00 | 0.00 | 95 | 1007.8 |
| 20260508105448 | 29 | 9 | 0.0 | 0.0 | 0.00 | 0.01 | 0.00 | 95 | 1007.8 |
| 20260508103947 | 29 | 9 | 0.0 | 0.0 | 0.00 | 0.01 | 0.00 | 94 | 1007.7 |
| 20260508101712 | 29 | 9 | 0.0 | 0.0 | 0.00 | 0.01 | 0.00 | 94 | 1007.7 |
| 20260508100212 | 29 | 9 | 0.0 | 0.0 | 0.00 | 0.01 | 0.00 | 94 | 1007.6 |
| 20260508094712 | 29 | 9 | 0.0 | 0.0 | 0.00 | 0.01 | 0.00 | 94 | 1007.5 |
| 20260508093941 | 29 | 9 | 0.0 | 0.0 | 0.00 | 0.01 | 0.00 | 94 | 1007.4 |
| 20260508091707 | 29 | 9 | 0.0 | 0.0 | 0.00 | 0.01 | 0.00 | 94 | 1007.4 |
| 20260508090208 | 29 | 9 | 0.0 | 0.0 | 0.00 | 0.01 | 0.00 | 94 | 1007.2 |
| 20260508084704 | 29 | 9 | 0.0 | 0.0 | 0.00 | 0.01 | 0.00 | 93 | 1007.2 |
| 20260508083203 | 29 | 9 | 0.0 | 0.0 | 0.00 | 0.01 | 0.00 | 93 | 1007.3 |
| 20260508082437 | 29 | 9 | 0.0 | 0.0 | 0.00 | 0.01 | 0.00 | 93 | 1007.4 |
| 20260508080208 | 29 | 9 | 0.0 | 0.0 | 0.00 | 0.01 | 0.00 | 92 | 1007.0 |
| 20260508080202 | 29 | 9 | 0.0 | 0.0 | 0.00 | 0.01 | 0.00 | 93 | 1007.2 |
| 20260508073203 | 29 | 9 | 0.0 | 0.0 | 0.00 | 0.01 | 0.00 | 92 | 1007.0 |
| 20260508071706 | 30 | 9 | 0.0 | 0.0 | 0.00 | 0.01 | 0.00 | 92 | 1007.1 |
| 20260508070158 | 30 | 9 | 0.0 | 0.0 | 0.00 | 0.01 | 0.00 | 92 | 1007.3 |
| 20260508064656 | 30 | 9 | 0.0 | 0.0 | 0.00 | 0.01 | 0.00 | 91 | 1007.3 |
| 20260508063150 | 30 | 9 | 0.0 | 0.0 | 0.00 | 0.01 | 0.00 | 91 | 1007.3 |
| 20260508062420 | 30 | 9 | 0.0 | 0.0 | 0.00 | 0.01 | 0.00 | 90 | 1007.3 |
| 20260508060142 | 31 | 9 | 0.0 | 0.0 | 0.00 | 0.01 | 0.00 | 90 | 1007.3 |
| 20260508054644 | 31 | 9 | 0.0 | 0.0 | 0.00 | 0.01 | 0.00 | 89 | 1007.5 |
| 20260508053137 | 31 | 9 | 0.0 | 0.0 | 0.00 | 0.01 | 0.00 | 89 | 1007.4 |
| 20260508052422 | 32 | 9 | 0.0 | 0.0 | 0.00 | 0.01 | 0.00 | 88 | 1007.4 |
| 20260508050132 | 32 | 9 | 0.0 | 0.0 | 0.00 | 0.01 | 0.00 | 87 | 1007.8 |
| 20260508044633 | 32 | 9 | 0.0 | 0.0 | 0.00 | 0.01 | 0.00 | 86 | 1007.8 |
| 20260508043127 | 33 | 9 | 0.0 | 0.0 | 0.00 | 0.01 | 0.00 | 85 | 1007.8 |
| 20260508041626 | 33 | 9 | 0.0 | 0.0 | 0.00 | 0.01 | 0.00 | 84 | 1007.9 |
| 20260508040127 | 34 | 9 | 0.0 | 0.0 | 0.00 | 0.01 | 0.00 | 83 | 1007.9 |
| 20260508034626 | 35 | 9 | 0.0 | 0.0 | 0.00 | 0.01 | 0.01 | 83 | 1007.9 |
| 20260508033125 | 35 | 9 | 0.0 | 0.0 | 0.00 | 0.01 | 0.01 | 82 | 1007.7 |
| 20260508031626 | 36 | 9 | 0.0 | 0.0 | 0.00 | 0.01 | 0.01 | 81 | 1007.9 |
| 20260508030126 | 37 | 9 | 0.0 | 0.0 | 0.00 | 0.01 | 0.01 | 80 | 1007.7 |
| 20260508024625 | 37 | 9 | 0.0 | 0.0 | 0.00 | 0.01 | 0.01 | 79 | 1007.8 |
| 20260508023125 | 38 | 9 | 0.0 | 0.0 | 0.00 | 0.01 | 0.01 | 77 | 1007.8 |
| 20260508021622 | 39 | 9 | 0.0 | 0.0 | 0.00 | 0.01 | 0.01 | 74 | 1007.7 |
| 20260508020119 | 40 | 9 | 0.0 | 0.0 | 0.00 | 0.01 | 0.01 | 76 | 1007.6 |
| 20260508014619 | 41 | 9 | 0.0 | 0.0 | 0.00 | 0.01 | 0.01 | 74 | 1007.6 |
| 20260508013119 | 42 | 9 | 0.0 | 0.0 | 0.00 | 0.01 | 0.01 | 70 | 1007.4 |
| 20260508011620 | 43 | 9 | 0.0 | 0.9 | 0.00 | 0.02 | 0.01 | 70 | 1007.2 |
| 20260508010114 | 44 | 9 | 1.7 | 2.6 | 0.00 | 0.02 | 0.01 | 68 | 1007.2 |
| 20260508004613 | 45 | 9 | 0.9 | 2.6 | 0.00 | 0.03 | 0.01 | 64 | 1006.9 |
| 20260508003108 | 47 | 9 | 1.7 | 6.1 | 0.00 | 0.03 | 0.01 | 61 | 1006.8 |
| 20260508001609 | 48 | 0 | 1.7 | 3.5 | 0.00 | 0.04 | 0.01 | 56 | 1006.6 |
| 20260508000101 | 49 | 345 | 1.7 | 7.8 | 0.00 | 0.04 | 0.01 | 51 | 1006.5 |
| 20260507234602 | 51 | 314 | 1.7 | 7.8 | 0.00 | 0.04 | 0.01 | 46 | 1006.3 |
| 20260507233828 | 51 | 10 | 2.6 | 8.7 | 0.00 | 0.04 | 0.01 | 42 | 1006.2 |
| 20260507231555 | 52 | 17 | 2.6 | 9.6 | 0.00 | 0.04 | 0.01 | 42 | 1005.8 |
| 20260507230050 | 53 | 314 | 1.7 | 10.4 | 0.00 | 0.04 | 0.01 | 40 | 1005.6 |
| 20260507224551 | 53 | 22 | 4.3 | 10.4 | 0.00 | 0.04 | 0.01 | 40 | 1005.4 |
| 20260507223044 | 54 | 29 | 2.6 | 10.4 | 0.00 | 0.04 | 0.01 | 37 | 1005.3 |
| 20260507221543 | 54 | 84 | 2.6 | 11.3 | 0.00 | 0.04 | 0.01 | 37 | 1005.1 |
| 20260507220039 | 54 | 5 | 3.5 | 9.6 | 0.00 | 0.04 | 0.01 | 36 | 1005.2 |
| 20260507214544 | 55 | 340 | 2.6 | 12.2 | 0.00 | 0.04 | 0.01 | 37 | 1005.1 |
| 20260507214539 | 55 | 254 | 2.6 | 10.4 | 0.00 | 0.04 | 0.01 | 35 | 1005.1 |
| 20260507211539 | 56 | 11 | 4.3 | 13.0 | 0.00 | 0.04 | 0.01 | 35 | 1005.3 |
| 20260507210039 | 56 | 269 | 4.3 | 13.0 | 0.00 | 0.04 | 0.01 | 35 | 1005.0 |
| 20260507205309 | 57 | 138 | 2.6 | 10.4 | 0.00 | 0.04 | 0.01 | 33 | 1004.9 |
| 20260507203041 | 57 | 237 | 1.7 | 7.0 | 0.00 | 0.05 | 0.01 | 36 | 1004.9 |
| 20260507201535 | 56 | 19 | 2.6 | 12.2 | 0.00 | 0.10 | 0.01 | 38 | 1004.9 |
| 20260507200030 | 57 | 355 | 2.6 | 11.3 | 0.00 | 0.13 | 0.01 | 35 | 1005.0 |
| 20260507194530 | 57 | 159 | 4.3 | 14.8 | 0.00 | 0.14 | 0.01 | 36 | 1005.3 |
| 20260507193024 | 57 | 5 | 3.5 | 13.9 | 0.00 | 0.16 | 0.01 | 35 | 1005.3 |
| 20260507191526 | 57 | 36 | 3.5 | 11.3 | 0.00 | 0.18 | 0.01 | 41 | 1005.6 |
| 20260507190752 | 57 | 38 | 4.3 | 13.0 | 0.00 | 0.19 | 0.01 | 40 | 1005.3 |
| 20260507184521 | 58 | 329 | 1.7 | 9.6 | 0.00 | 0.19 | 0.01 | 43 | 1005.7 |
| 20260507183753 | 58 | 9 | 2.6 | 8.7 | 0.00 | 0.20 | 0.01 | 39 | 1005.6 |
| 20260507181521 | 58 | 327 | 2.6 | 13.9 | 0.00 | 0.20 | 0.01 | 37 | 1005.9 |
| 20260507180021 | 57 | 25 | 1.7 | 11.3 | 0.00 | 0.24 | 0.01 | 40 | 1005.8 |
| 20260507174521 | 57 | 0 | 4.3 | 11.3 | 0.00 | 0.28 | 0.01 | 43 | 1006.0 |
| 20260507173022 | 56 | 171 | 4.3 | 11.3 | 0.00 | 0.33 | 0.01 | 43 | 1006.1 |
| 20260507171520 | 58 | 23 | 3.5 | 23.5 | 0.00 | 0.38 | 0.01 | 41 | 1006.3 |
| 20260507170755 | 56 | 107 | 2.6 | 18.2 | 0.00 | 0.46 | 0.01 | 42 | 1006.7 |
| 20260507170020 | 57 | 0 | 5.2 | 23.5 | 0.00 | 0.43 | 0.01 | 40 | 1006.4 |
| 20260507163022 | 56 | 86 | 3.5 | 16.5 | 0.00 | 0.54 | 0.01 | 41 | 1006.9 |
| 20260507161518 | 55 | 321 | 6.1 | 16.5 | 0.00 | 0.56 | 0.01 | 43 | 1007.0 |
| 20260507160018 | 55 | 313 | 3.5 | 13.0 | 0.00 | 0.57 | 0.01 | 46 | 1007.4 |
| 20260507154518 | 55 | 327 | 2.6 | 13.0 | 0.00 | 0.58 | 0.01 | 54 | 1007.4 |
| 20260507153018 | 55 | 38 | 2.6 | 10.4 | 0.00 | 0.59 | 0.01 | 49 | 1007.3 |
| 20260507151519 | 53 | 347 | 2.6 | 10.4 | 0.00 | 0.59 | 0.01 | 57 | 1007.3 |
| 20260507150745 | 52 | 135 | 2.6 | 12.2 | 0.00 | 0.60 | 0.01 | 50 | 1007.3 |
| 20260507144513 | 54 | 30 | 2.6 | 7.8 | 0.00 | 0.61 | 0.01 | 52 | 1007.6 |
| 20260507143745 | 53 | 19 | 0.9 | 7.8 | 0.00 | 0.62 | 0.01 | 62 | 1007.6 |